{"data":{"norad_id":62671,"epoch":"2026-05-25T04:33:37.996704Z","epoch_age_seconds":55698,"freshness":"FRESH","line1":"1 62671U 25009BQ  26145.19002311  .00002314  00000+0  10781-3 0  9992","line2":"2 62671  97.3987 224.1814 0006699  63.9979 296.1946 15.20876937132845","mean_motion":15.20876937,"eccentricity":0.0006699,"inclination_deg":97.3987,"raan_deg":224.1814,"arg_perigee_deg":63.9979,"mean_anomaly_deg":296.1946,"bstar":0.00010781,"rev_number":13284,"period_min":94.682216882088,"perigee_km":498.58435657514,"apogee_km":507.80396406373,"semimajor_km":6881.3311603194,"source":"CELESTRAK","updated_at":"2026-05-25T13:38:03.165033Z"}}